Regional Weather Roundup
Issued by NWS Sterling, VA

Home | Current Version | Previous Version | Text Only | Print | Product List | Glossary On
Versions: 1 2 3 4 5 6 7 8 9 10 11 12 13 14 15 16 17 18 19 20 21 22 23 24 25 26 27 28 29 30 31 32 33 34 35 36 37 38 39 40 41 42 43 44 45 46 47 48 49 50
000
ASUS41 KLWX 061610
RWRLWX

REGIONAL WEATHER ROUNDUP
NATIONAL WEATHER SERVICE BALTIMORE MD/WASHINGTON DC
1100 AM EST FRI MAR 06 2015

Note: "FAIR" indicates few or no clouds below 12,000 feet
with no significant weather and/or obstructions to visibility.
 TC=TEMPERATURE CELSIUS

 * =Non NWS site. Station does not report precipitation (e.g. rain,
    snow, etc.), thunder, or fog.

DCZ001-MDZ009-015-VAZ040>042-051-053>054-061700-
WASHINGTON METRO

CITY           SKY/WX    TMP DP  RH WIND       PRES   REMARKS
WASHINGTON NAT SUNNY     23   2  40 NE5       30.61F
DULLES         SUNNY     17   2  51 VRB7      30.59F
ANDREWS AFB    SUNNY     19   4  54 N7        30.57F
FT BELVOIR     SUNNY     21   4  47 CALM      30.60F
QUANTICO       SUNNY     21   9  59 NE10      30.62F WCI  10
COLLEGE PARK*  SUNNY     21   5  49 NE6       30.60F
LEESBURG*      SUNNY     19   7  58 NW7       30.59F
GAITHERSBURG*  SUNNY     16   1  53 N5        30.60F

$$

MDZ006>007-011-014-061700-
BALTIMORE METRO

CITY           SKY/WX    TMP DP  RH WIND       PRES   REMARKS
BWI AIRPORT    SUNNY     20   4  50 VRB6      30.58F
MD SCIENCE CTR   N/A     19   4  51 MISG      30.60S
MARTIN STATE   SUNNY     21   7  53 NW7       30.61F
ANNAPOLIS        N/A    N/A N/A N/A MISG      30.60F
FORT MEADE*    SUNNY     19   5  53 NE5       30.62F

$$

MDZ012-015-019>023-061700-
MARYLAND EASTERN SHORE

CITY           SKY/WX    TMP DP  RH WIND       PRES   REMARKS
OCEAN CITY     CLOUDY    22  12  65 N13       30.55F WCI  10
SALISBURY      SUNNY     24  10  55 N8        30.55F WCI  15
BAY BRIDGE AP*   N/A     21   5  49 N9        30.60F WCI  11
CAMBRIDGE*     SUNNY     23   9  54 N9        30.58F WCI  13

$$

MDZ017>025-061700-
SOUTHERN MARYLAND

CITY           SKY/WX    TMP DP  RH WIND       PRES   REMARKS
PATUXENT RIVER MOSUNNY   20   7  57 NE15      30.59S WCI   6
ST INIGOES     SUNNY     21   6  52 N10G17    30.58F WCI  10
LEONARDTOWN*   MOSUNNY   21  10  63 CALM      30.60S

$$

MDZ003>005-061700-
NORTH CENTRAL MARYLAND

CITY           SKY/WX    TMP DP  RH WIND       PRES   REMARKS
FREDERICK*     SUNNY     19  -2  38 CALM      30.63F
HAGERSTOWN APT SUNNY     14  -2  49 NW5       30.56F
WESTMINSTER*   SUNNY     12   3  67 NW3       30.54F

$$

MDZ501>502-061700-
WESTERN MARYLAND

CITY           SKY/WX    TMP DP  RH WIND       PRES   REMARKS
OAKLAND*       SUNNY     12   0  57 SE3       30.32F
CUMBERLAND*    SUNNY     21   3  45 SE3       30.58F

$$

VAZ025>031-061700-
SHENANDOAH VALLEY

CITY           SKY/WX    TMP DP  RH WIND       PRES   REMARKS
WINCHESTER*    SUNNY     21  -4  33 NW3       30.55F
FRONT ROYAL*   FAIR      18   1  49 CALM      30.55F
LURAY*         FAIR      25  10  54 CALM      30.54F
NEW MARKET*    FAIR      14  11  87 CALM      30.54F
STAUNTON*      SUNNY     17   5  60 CALM      30.53F
WAYNESBORO*    FAIR      14   6  70 NW3       30.49F

$$

WVZ021-048>050-054>055-061700-
EASTERN WEST VIRGINIA PANHANDLE

CITY           SKY/WX    TMP DP  RH WIND       PRES   REMARKS
MARTINSBURG    SUNNY     18   0  45 NE3       30.58F
PETERSBURG*    NOT AVBL

$$

VAZ036>039-050-061700-
CENTRAL FOOTHILLS

CITY           SKY/WX    TMP DP  RH WIND       PRES   REMARKS
CHARLOTTESVILL SUNNY     22   7  52 CALM      30.54F
CULPEPER*      SUNNY     21   1  42 NE7       30.58F
ORANGE*        SUNNY     23   5  46 N8        30.58F WCI  14
GORDONSVILLE*  FAIR      20   3  48 NE7       30.56F
WARRENTON*     FAIR      22   9  58 N6        30.57F

$$

VAZ055>057-061700-
NORTH AND CENTRAL PIEDMONT

CITY           SKY/WX    TMP DP  RH WIND       PRES   REMARKS
FREDERICKSBRG* SUNNY     23   6  49 N6        30.60F
STAFFORD*      SUNNY     20   1  44 CALM      30.63F

$$

NCZ024-NYZ072-PAZ021-071-VAZ022-071-061700-
OTHER REGIONAL OBSERVATIONS

CITY           SKY/WX    TMP DP  RH WIND       PRES   REMARKS
NEW YORK CITY  SUNNY     20   2  45 VRB5      30.55F
PHILADELPHIA   SUNNY     19   6  57 N7        30.58F
PITTSBURGH     MOSUNNY   15   3  59 S8        30.49F WCI   4
ROANOKE        SUNNY     22   8  55 NE8       30.51F WCI  12
RICHMOND       SUNNY     24   8  50 NE9       30.58F WCI  14
RALEIGH        MOSUNNY   29   6  38 NE12G18   30.52F WCI  19

$$

ANZ530>537-061700-
MARINE OBSERVATIONS

STATION/POSITION TIME  TEMP    WIND        PRES
                       AIR SEA DIR/SP/G
                 (UTC) (F)     (DEG/KT/KT) (MB)
THOMAS PT LIGHT  1600           10/ 11/ 13   N/A
BALT KEY BRIDGE  1500   16     340/  6/  8 1037.0R
COVE POINT       1500   17      20/ 12/ 17 1036.0R
LEWISETTA        1500   20 32   20/  8/ 13 1035.7F
SOLOMONS ISLAND  1500      32                N/A

$$



USA.gov is the U.S. government's official web portal to all federal, state and local government web resources and services.